Flag for U.S.A. Weather past 2 weeks in Worcester, Massachusetts, U.S.A.

Now
59 °F

Clear.


Feels Like: 57 °F
Forecast: 61 / 84 °F
Wind: 9 mph from Southwest

Location: Worcester Regional Airport

Current Time: May 30, 2015 at 2:44:44 AM

Latest Report: May 30, 2015 at 1:54 AM


Visibility: 10 mi

Pressure: 30.22 "Hg

Humidity: 81%

Dew point: 53 °F

Location of WorcesterLocation

Historic Weather in Worcester — Graph

°F

Worcester temperature yesterday

Maximum temperature yesterday: 78 °F (at 4:54 PM)
Minimum temperature yesterday: 59 °F (at 12:54 AM)
Average temperature yesterday: 69 °F

Past Weeks' High & Low Weather Summary

 TemperatureHumidityPressure
High84 °F (May 27, 2:54 PM)97% (May 18, 3:54 AM)30.34 "Hg (May 18, 3:54 AM)
Low38 °F (May 23, 5:54 AM)17% (May 15, 3:54 PM)29.72 "Hg (May 20, 2:54 AM)
Average63 °F58%30.11 "Hg
* Reported May 15 1:54 AM — May 30 1:54 AM, Worcester, Weather by CustomWeather, © 2015

Note: Actual official high and low records may vary slightly from our data, if they occured in-between our weather recording intervals... More about our weather records

Advertising

Worcester weather history for previous 24 hours

 ConditionsComfort  
Time TempWeatherWind HumidityBarometerVisibility
1:54 AM
Sat, May 30
59 °FClear.9 mph81%30.22 "Hg10 mi
12:54 AM61 °FClear.8 mph78%30.22 "Hg10 mi
11:54 PM
Fri, May 29
63 °FClear.7 mph75%30.24 "Hg10 mi
10:54 PM66 °FClear.5 mph70%30.26 "Hg10 mi
9:54 PM67 °FClear.8 mph71%30.26 "Hg10 mi
8:54 PM71 °FSunny.10 mph63%30.24 "Hg10 mi
7:54 PM73 °FPassing clouds.14 mph59%30.24 "Hg10 mi
6:54 PM76 °FPassing clouds.7 mph52%30.24 "Hg10 mi
5:54 PM77 °FPassing clouds.7 mph48%30.24 "Hg10 mi
4:54 PM78 °FPassing clouds.7 mph46%30.25 "Hg10 mi
3:54 PM77 °FScattered clouds.8 mph47%30.27 "Hg10 mi
2:54 PM76 °FPartly sunny.6 mph50%30.28 "Hg10 mi
1:54 PM77 °FPartly sunny.8 mph48%30.28 "Hg10 mi
12:54 PM77 °FOvercast.5 mph48%30.30 "Hg10 mi
11:54 AM75 °FScattered clouds.N/A52%30.30 "Hg10 mi
10:54 AM71 °FScattered clouds.3 mph59%30.31 "Hg10 mi
9:54 AM70 °FSunny.8 mph59%30.31 "Hg10 mi
8:54 AM69 °FSunny.7 mph61%30.31 "Hg10 mi
7:54 AM66 °FSunny.8 mph65%30.31 "Hg10 mi
6:54 AM63 °FSunny.8 mph73%30.29 "Hg10 mi
5:54 AM61 °FClear.9 mph75%30.27 "Hg10 mi
4:54 AM61 °FClear.7 mph75%30.26 "Hg10 mi
3:54 AM61 °FClear.9 mph75%30.24 "Hg10 mi
2:54 AM59 °FClear.10 mph81%30.24 "Hg10 mi
Weather by CustomWeather, © 2015

See weather overviewHow to use our weather pages